Location: Hylvaty SDH
(49.9612°N, 16.4057°E)
Time: 18:24:50
(UTC+02:00)

Transit 4A - Pass Details

Date: 17 August 2020
Orbit: 862 x 982 km, 66.8° (Epoch: 28 September)

Event Time Altitude Azimuth Distance (km) Brightness Sun altitude
Rises 19:17:22 0° 308° (NW) 3,674 12.3 7.0°
Reaches altitude 10° 19:22:27 10° 274° (W) 2,734 12.8 6.2°
Maximum altitude 19:23:48 11° 261° (W) 2,681 11.9 6.0°
Drops below altitude 10° 19:25:09 10° 249° (WSW) 2,733 11.4 5.8°
Sets 19:30:16 0° 214° (SW) 3,672 11.3 5.0°
